Find Starlink 1280

NORAD ID: 45388 Int'l Des: 2020-019 Owner: SPXS Country: US Constellation: starlink operational
LEOCIRCULAR

Live Position

Loading 3D Globe...

About Starlink 1280

Description loading...

Upcoming Passes

Passes for default location (London). Set your location on the main map for personalized predictions.

Altitude History

Loading altitude history...

Two-Line Element Set

1 45388U 20019AE 26106.25629249 .00041320 00000-0 33269-3 0 9990
2 45388 53.0410 297.2682 0001766 243.2912 116.7924 15.70529108336237
Epoch: Apr 16, 2026 • Age: 8 hours

Current Status

Altitude 363.3 km
Velocity 7.70 km/s
Sub-Earth Point 47.35°N, 2.52°E
Launch Date Mar 18, 2020
Age 6 years
Type internet

Technical Details

Classification Payload
Mass 260.00 kg
Dry Mass 248.00 kg
Total Mass 260.00 kg
Length 0.20 m
Diameter 2.80 m
Span 9.00 m
Shape Box + pan
Manufacturer SPXS
Bus Type Starlink
Phase Status In Orbit
Owner/State SPXS/US

Most Searched